Probability
0 0 0 0 0 0 0 0 0 0 0 0 0 0 0 0 0 0 0 0 0 0 0 0 0 0 0 0 0 0 0 0 0 0 0 0 0 0
0 0 0 0 0 0 0 0 0 0 0 0 0 0 0 0 0 0 0 0 0 0 0 0 0 0 0 0 0 0 0 0 0 0 0 0 0 0
0 0 0 0 0 0 0 0 0 0 0 0 0 0 0 0 0 0 0 0 0 0 0 0 0 0 0 0 0 0 0 0 0 0 0 0 0 0
0 0 0 0 0 0 0 0 0 0 0 0 0 0 0 0 0 0 0 0 0 0 0 0 0 0 0 0 0 0 0 0 0 0 0 0 0 0
0 0 0 0 0 0 0 0 0 0 0 0 0 0 0 0 0 0 0 0 0 0 0 0 0 0 0 0 0 0 0 0 0 0 0 0 0 0
0 0 0 0 0 0 0 0 0 0 0 0 0 0 0 0 0 0 0 0 0 0 0 0 0 0 0 0 0 0 0 0 0 0 0 0 0 0
0 0 0 0 0 0 0 0 0 0 0 0 0 0 0 0 0 0 0 0 0 0 0 0 0 0 0 0 0 0 0 0 0 0 0 0 0 0
0 0 0 0 0 0 0 0 0 0 0 0 0 0 0 0 0 0 0 0 0 0 0 0 0 0 0 0 0 0 0 0 0 0 0 0 0 0
0 0 0 0 0 0 0 0 0 0 0 0 0 0 0 0 0 0 0 0 0 0 0 0 0 0 0 0 0 0 0 0 0 0 0 0 0 0
0 0 0 0 0 0 0 0 0 0 0 0 0 0 0 0 0 0 0 0 0 0 0 0 0 0 0 0 0 0 0 0 0 0 0 0 0 0
0 0 0 0 0 0 0 0 0 0 0 0 0 0 0 0 0 0 0 0 0 0 0 0 0 0 0 0 0 0 0 0 0 0 0 0 0 0
0 0 0 0 0 0 0 0 0 0 0 0 0 0 0 0 0 0 0 0 0 0 0 0 0 0 0 0 0 0 0 0 0 0 0 0 0 0
0 0 0 0 0 0 0 0 0 0 0 0 0 0 0 0 0 0 0 0 0 0 0 0 0 0 0 0 0 0 0 0 0 0 0 0 0 0
0 0 0 0 0 0 0 0 0 0 0 0 0 0 0 0 0 0 0 0 0 0 0 0 0 0 0 0 0 0 0 0 0 0 0 0 0 0
0 0 0 0 0 0 0 0 0 0 0 0 0 0 0 0 0 0 0 0 0 0 0 0 0 0 0 0 0 0 0 0 0 0 0 0 0 0
0 0 0 0 0 0 0 0 0 0 0 0 0 0 0 0 0 0 0 0 0 0 0 0 0 0 0 0 0 0 0 0 0 0 0 0 0 0
0 0 0 0 0 0 0 0 0 0 0 0 0 0 0 0 0 0 0 0 0 0 0 0 0 0 0 0 0 0 0 0 0 0 0 0 0 0
0 0 0 0 0 0 0 0 0 0 0 0 0 0 0 0 0 0 0 0 0 0 0 0 0 0 0 0 0 0 0 0 0 0 0 0 0 0
0 0 0 0 0 0 0 0 0 0 0 0 0 0 0 0 0 0 0 0 0 0 0 0 0 0 0 0 0 0 0 0 0 0 0 0 0 0
0 0 0 0 0 0 0 0 0 0 0 0 0 0 0 0 0 0 0 0 0 0 0 0 0 0 0 0 0 0 0 0 0 0 0 0 0 0
0 0 0 0 0 0 0 0 0 0 0 0 0 0 0 0 0 0 0 0 0 0 0 0 0 0 0 0 0 0 0 0 0 0 0 0 0 0
0 0 0 0 0 0 0 0 0 0 0 0 0 0 0 0 0 0 0 0 0 0 0 0 0 0 0 0 0 0 0 0 0 0 0 0 0 0
0 0 0 0 0 0 0 0 0 0 0 0 0 0 0 0 0 0 0 0 0 0 0 0 0 0 0 0 0 0 0 0 0 0 0 0 0 0
Wind_Speed
8 8 6 5 5 5 5 4 3 2 2 2 1 2 2 3 4 3 3 4 5 6 7 8 9 9 10 10 9 9 8 6 5 4 3 2 3 4
6 7 7 5 5 5 5 5 5 4 3 2 1 0 1 2 4 4 6 9 9 10 11 12 13 13 13 13 13 12 11 11 10 9 8 6 5 5
7 8 9 7 6 6 6 6 6 6 6 3 1 1 2 3 3 4 5 6 6 12 13 14 15 14 14 14 15 14 13 13 13 13 13 13 13 14
6 7 9 7 9 7 6 7 6 7 6 5 2 2 2 5 5 5 5 6 6 12 15 15 16 15 15 15 15 15 14 14 14 14 15 16 16 17
5 6 7 7 9 7 8 7 6 6 6 5 4 2 2 4 5 5 7 6 7 10 14 14 15 15 15 15 15 14 14 15 15 15 16 16 17 18
5 5 6 6 8 8 7 8 7 7 6 5 5 4 2 5 5 6 5 4 5 6 9 11 14 16 16 15 15 16 15 15 16 16 16 16 17 18
6 6 5 7 9 8 7 7 8 7 7 6 6 5 4 6 6 5 7 7 6 4 7 7 8 8 10 13 15 17 17 16 16 17 17 17 16 17
6 6 5 7 9 11 13 13 12 10 10 8 7 7 8 7 7 9 9 8 5 3 6 6 6 8 7 7 12 16 17 17 17 17 17 16 16 16
7 6 6 6 7 7 9 13 15 14 13 10 10 10 10 10 11 11 9 6 6 7 7 7 6 8 6 8 12 14 15 15 15 16 15 15 15 15
8 8 7 7 7 7 7 8 9 11 12 10 9 9 9 11 12 10 11 10 9 4 3 6 4 5 6 7 10 12 13 13 13 14 14 14 14 14
8 8 8 8 9 9 8 9 8 7 8 11 10 10 14 17 16 13 12 13 10 4 2 5 5 5 5 5 7 10 11 11 11 12 12 13 13 12
6 6 8 8 9 9 9 9 9 8 7 7 8 12 15 19 21 17 15 14 13 6 3 5 6 5 5 3 4 5 6 8 9 10 11 11 9 7
5 5 4 5 8 10 11 9 9 8 8 8 8 10 11 12 12 10 10 14 14 7 8 7 6 3 5 6 4 3 4 5 5 6 8 9 7 5
6 5 4 4 4 5 7 8 11 11 7 8 9 9 10 11 10 10 9 7 6 10 12 9 7 5 7 7 6 4 3 4 5 5 6 7 5 3
5 7 7 5 3 3 3 8 12 9 8 9 9 9 8 10 11 10 10 8 8 10 9 7 9 7 7 7 7 6 5 4 4 5 6 6 5 4
5 7 7 5 3 2 3 5 7 7 8 8 9 8 9 10 10 9 10 9 9 7 5 5 9 9 7 7 8 7 5 6 5 5 5 5 4 5
7 5 3 3 2 1 2 3 4 6 7 7 9 10 10 9 8 8 8 8 7 8 7 4 5 5 5 6 8 7 5 4 5 5 4 4 4 5
8 6 5 4 3 2 2 2 4 6 7 8 9 10 10 10 8 7 8 9 9 8 8 7 7 5 4 4 3 8 6 5 4 5 4 4 4 4
6 6 5 5 4 3 2 2 3 6 7 9 9 9 9 9 9 9 9 8 8 8 8 8 9 8 8 7 3 3 7 5 5 5 4 4 4 4
4 5 5 5 4 3 3 3 4 6 8 9 9 9 9 9 9 9 9 9 8 7 7 7 9 9 8 8 6 5 6 6 6 6 5 3 2 1
4 4 4 4 4 4 3 4 5 7 9 9 9 10 9 9 8 8 8 10 9 7 9 7 5 6 6 6 6 4 5 5 5 5 6 4 3 3
4 4 4 4 4 4 4 4 5 7 9 8 9 9 9 9 10 10 9 9 8 7 7 6 7 6 5 6 7 6 6 5 4 4 5 6 5 6
4 4 4 4 4 4 4 5 7 7 8 8 9 8 9 8 8 8 9 8 8 8 8 6 5 3 3 4 6 5 7 7 5 5 6 10 12 10
Wind_Direction
211 208 208 207 198 202 202 199 214 250 275 282 308 31 30 22 16 33 46 74 107 125 126 125 126 133 137 141 140 139 142 149 150 155 167 195 232 235
214 214 216 211 204 201 201 205 208 221 246 244 247 40 72 62 45 60 70 76 83 96 101 104 105 105 107 110 111 113 114 111 108 107 104 101 97 94
223 220 225 216 210 204 198 198 204 211 238 251 232 205 150 126 89 77 73 69 76 85 91 95 96 97 97 97 97 96 96 97 98 97 93 89 85 85
236 229 233 226 221 213 202 202 203 205 219 242 234 208 167 147 123 100 83 75 75 82 86 91 93 93 92 91 91 91 91 91 91 91 90 88 86 86
240 234 235 230 229 219 211 207 202 200 206 223 233 209 152 144 127 103 91 83 78 82 81 83 90 93 94 94 94 92 91 90 89 88 87 86 87 87
230 234 235 234 237 229 218 213 196 193 198 213 224 214 167 149 140 131 112 89 82 80 83 88 95 96 99 103 105 103 98 96 94 92 89 87 85 84
229 228 233 244 247 239 225 213 193 193 194 204 212 204 180 165 156 141 128 111 83 90 97 88 92 92 95 103 107 109 105 102 100 98 95 91 88 85
237 239 242 254 257 250 237 219 198 192 195 198 206 206 190 166 150 148 144 140 122 132 105 88 88 88 86 95 107 111 109 107 105 102 99 95 91 87
233 240 252 252 260 262 249 227 210 202 194 193 203 204 184 168 156 157 156 138 127 147 123 98 87 85 83 92 103 107 109 109 108 105 102 99 95 90
233 231 239 256 260 256 244 225 213 209 208 207 212 201 182 167 159 149 136 113 103 104 103 108 103 92 89 91 99 107 111 113 113 112 110 105 99 92
236 229 231 249 257 245 230 219 211 211 211 209 206 187 163 153 145 135 138 134 132 119 87 106 119 106 90 88 95 107 116 122 124 123 119 113 107 99
237 230 231 245 257 240 223 213 207 200 183 175 176 164 157 153 152 154 152 147 142 136 155 119 141 129 110 101 106 113 119 128 137 137 133 127 121 111
230 225 224 242 254 240 223 215 203 181 177 170 162 158 154 155 154 152 154 154 153 143 154 137 147 133 127 137 136 139 140 141 143 149 149 142 136 126
220 212 204 217 245 235 221 205 178 170 169 165 158 155 154 154 151 148 142 132 131 142 151 146 147 152 139 142 144 144 146 151 152 158 165 167 164 142
209 193 185 192 196 189 202 189 173 172 167 163 157 150 147 144 141 136 128 115 108 133 144 146 145 145 146 147 149 151 152 162 167 164 174 185 187 177
184 172 169 172 166 152 147 181 184 175 167 158 145 136 135 139 142 144 145 139 128 131 104 125 149 149 147 146 153 157 158 158 165 173 174 185 194 199
164 162 170 176 178 157 155 178 176 165 155 142 141 142 143 144 144 145 145 149 147 153 147 103 86 86 100 145 158 164 157 153 160 158 167 185 201 205
160 173 182 184 182 168 169 177 170 160 153 147 146 147 150 152 147 151 156 161 157 156 154 146 141 128 109 68 134 165 164 155 152 159 170 186 195 197
168 180 183 184 181 178 183 184 167 157 151 149 147 146 147 149 152 157 162 164 160 157 158 160 164 162 168 169 151 174 171 157 156 167 185 194 201 195
180 180 186 184 179 177 183 179 162 152 147 145 143 142 144 147 151 155 161 162 154 146 152 168 178 176 179 173 158 162 176 165 170 180 181 191 216 245
181 183 186 182 179 180 175 171 162 152 146 143 142 143 145 145 147 150 151 150 149 151 161 168 161 130 109 118 129 150 172 185 170 173 172 180 201 214
184 186 183 182 179 178 165 164 157 147 143 142 143 143 144 146 146 147 149 154 157 148 140 127 136 139 137 159 172 172 172 174 189 197 201 196 191 203
185 183 180 180 178 170 163 165 158 148 147 146 145 145 145 144 145 147 150 150 144 137 131 133 141 142 142 165 180 181 183 184 187 202 226 227 234 247